Regional Weather Roundup
Issued by NWS Bismarck, ND

Home | Current Version | Previous Version | Text Only | Print | Product List | Glossary On
Versions: 1 2 3 4 5 6 7 8 9 10 11 12 13 14 15 16 17 18 19 20 21 22 23 24 25 26 27 28 29 30 31 32 33 34 35 36 37 38 39 40 41 42 43 44 45 46 47 48 49 50
000
ASUS43 KBIS 240120
RWRBIS

NWR BROADCAST TEXT
NATIONAL WEATHER SERVICE BISMARCK ND
800 PM CDT TUE SEP 23 2014

NOTE: "FAIR" INDICATES FEW OR NO CLOUDS BELOW 12,000 FEET WITH NO
SIGNIFICANT WEATHER AND/OR OBSTRUCTIONS TO VISIBILITY.


CITY           SKY/WX    TMP DP  RH WIND       PRES   REMARKS
WILLISTON      CLEAR     75  53  46 CALM      29.82S
MINOT          CLEAR     66  56  70 SE10      29.87R
MINOT AFB      CLEAR     67  59  76 SE15      29.86R
BISMARCK       CLOUDY    62  57  83 SE10      29.92F
DICKINSON      CLEAR     66  57  72 SE10      29.87R
GARRISON         N/A     63  58  83 SE9       29.89R
HETTINGER ARPT PTCLDY    69  57  65 SE10      29.90R
JAMESTOWN      CLOUDY    59  53  80 S14       29.98S
BEACH            N/A     72  52  49 NW3       29.89S
CARRINGTON     CLOUDY    59  59 100 S14G20    29.97F
CROSBY         FAIR      70  54  56 S6        29.81F
HARVEY         CLOUDY    59  57  94 S15       29.94R
HAZEN          FAIR      63  55  77 SE7       29.89S
LINTON         CLOUDY    57  57 100 SE9       29.94S FOG
MANDAN         MOCLDY    59  57  94 SE12      29.93S
OAKES            N/A     57  57 100 SE9       30.00F
RUGBY          CLOUDY    63  57  82 S14       29.92S
STANLEY        FAIR      68  59  73 S7        29.86R
TIOGA          FAIR      70  59  68 SE12      29.87S
WATFORD CITY   FAIR      72  54  53 CALM      29.82S HAZE
$$

CITY           SKY/WX    TMP DP  RH WIND       PRES   REMARKS
GRAND FORKS    MOCLDY    66  52  60 S14       30.00R
GRAND FORKS AF MOCLDY    65  53  64 S16G24    30.00R
DEVILS LAKE    CLOUDY    63  52  67 S15       29.96R
FARGO          MOCLDY    64  50  60 SE8       30.03S
CANDO          CLOUDY    63  55  77 S14G22    29.95R
CAVALIER       FAIR      68  52  56 S16G26    29.95R
GRAFTON        FAIR      66  50  55 S21       29.97S
GWINNER        CLOUDY    61  55  82 SE8       30.02F
LANGDON        FAIR      66  55  68 S18G26    29.95R
ROLLA          CLOUDY    63  57  82 S16G23    29.93S
WALHALLA         N/A     70  57  64 S14G21    29.93S
$$

CITY           SKY/WX    TMP DP  RH WIND       PRES   REMARKS
ABERDEEN       LGT RAIN  58  56  93 SE7       29.98S
MOBRIDGE       CLOUDY    62  58  86 SE9       29.91R
BUFFALO          N/A     74  51  44 N13       29.86R
RAPID CITY     CLEAR     71  54  54 SE5       29.94R
GLASGOW        CLEAR     76  50  40 W7        29.85S
SIDNEY         CLEAR     70  52  52 W7        29.85R
WOLF POINT     CLEAR     74  53  48 CALM      29.84R
GLENDIVE       CLEAR     70  48  46 NW9       29.89S
MILES CITY     CLEAR     76  46  34 NW8       29.91R
BAKER          PTCLDY    71  51  49 W5        29.91S
$$

CITY           SKY/WX    TMP DP  RH WIND       PRES   REMARKS
BILLINGS       PTCLDY    80  43  26 CALM      29.98R
GREAT FALLS    PTCLDY    68  48  48 S12       29.95S
REGINA         PTCLDY    70  55  60 NW6       29.78S
ESTEVAN        PTCLDY    68  55  64 SE6       29.81F
$$



USA.gov is the U.S. government's official web portal to all federal, state and local government web resources and services.